Showing default

PREFIRE-2, 59881

Orbit data source: Space-Track

PREFIRE-2, 59881 is a payload satellite owned by JPL (US) in SSO that was launched on Sat, 25 May 2024 UTC via an ELECTRON launch vehicle from the Rocket Lab Launch Complex (RLLC). Payload-class satellites include a variety of spacecraft equipped with specific instruments for various scientific and technological missions. These include communications satellites like Starlink; space stations such as the ISS; scientific satellites like the Hubble; Earth observation satellites from companies like Planet Labs, Umbra, and HawkEye 360; GPS; miniature CubeSats for education and research; and military/defense satellites.

Loading next visibility...
Identifier
59881, 2024-099A
Orbit
SSO
Country
Flag of USUS
Related business
Manufacturer
JPL
Mission
Operational Civil Earth Obs Sci
Bus & Motor
CUBESAT 6U, Unknown motor
Mass
~10 kg wet, ~10 kg dry
Launch date (UTC)
2024-05-25 (1 year ago)
Launch vehicle
ELECTRON
Launch site
Rocket Lab Launch Complex (RLLC)
Object type
Payload
Rocket body
Debris
Shape & HBR
Box + 1 Sail, 6.3 m
Radar Cross Section
0.080 m², Medium (>0.1 m² and < 1m²)

Expand to show TLE details & history
Last TLE update: 10 hours ago

TLE from 10 hours ago
0 PREFIRE-2
1 59881U 24099A   25287.90126889  .00004930  00000-0  24137-3 0  9998
2 59881  97.4345 143.0903 0012554 351.0217   9.0790 15.18569848 76879
Epoch: 2025-10-14T21:37Z
TLE epoch observation values (Epoch: 2025-10-14T21:37:49.632Z)
Latitude
-0.00008°
Longitude
154.95046°
Altitude
504.709 km
Speed
7.617 km/s
True Right ascension
09h 32m 21s
True Declination
0° 00' 00"
Sunlit
Object was in daylight at epoch
Visualization orbit readout
Latitude
Unknown
Longitude
Unknown
Altitude
Unknown
Speed
Unknown
Apparent Right ascension
Unknown
Apparent Declination
Unknown
Sunlit
N/A
Visualization observer readout
Local Sidereal Time
02:19:51
Azimuth
Unknown
Elevation
Unknown
Doppler factor
Unknown
Orbital elements
Apogee altitude
515.775 km
Perigee altitude
498.487 km
Semi-major axis
6,885.268 km
Eccentricity
0.00126
Inclination
97.4345°
RAAN
143.0903°
Arg. of periapsis
351.0217°
True anomaly
9.10174°
Mean anomaly
9.079°
Eccentric anomaly
9.09036°
Mean motion
3.79894 °/min
Orbital period
94.76 mins
BSTAR
0.00024137
Loading maneuver chart data...
Computing Atmospheric mass density...
Loading historical data...
Loading historical data...
Loading historical data...
Loading historical data...
Loading historical data...
Loading historical data...
Loading historical data...
Other satellites on launch #99 in the year 2024 (2024-05-25 UTC)

Documentation

Showing up to 5 results
|